Airfield :
LOGIN :

Register | Disclaimer

   EN    FR    IT 

 










Legend :    VFR   Marginal VFR   IFR   Intensive IFR   Very Intensive IFR
Visi :
Ceiling :
>= 8 km
>= 3000ft
5 to 8 km
1000 to 3000 ft
1500m to 5 km
500 to 1000 ft
800 to 1500m
200 to 500 ft
< 800m
< 200 ft
Symbols :   Thunderstorms  Fog  Heavy snow  Heavy precipitations  Wind > 20 kt
SIGMETs :     Misc.  Thunderstorms  Icing  Turbulence  Mountain Waves  Volcanic Ashes







- Airport Elevation : 1516 ft
- IATA code : AGB


EDMA - Augsburg

CURRENT METAR :
  • 180650Z 18004KT 9999 BKN024 M01/M04 Q1021

EXPIRED METARs :
  • 180620Z 17005KT CAVOK M01/M03 Q1021
  • 180550Z 16005KT 9999 FEW017 M01/M03 Q1021
  • 180520Z AUTO 17005KT 9999 // SCT017/// BKN110/// OVC130/// M01/M03 Q1021
  • 180450Z AUTO 18004KT 9999 // SCT026/// BKN120/// OVC140/// M01/M03 Q1022
  • 180420Z AUTO 19004KT 9999 // BKN034/// BKN120/// M01/M03 Q1022

TAF TAF EDMA
Valid from the 18 at 06:00 until the 18 at 15:00 UTC


180550Z 1806/1815 16005KT 9999 BKN020
TEMPO 1808/1813 4000 -SN BKN012
No reported NOTAMs for that airfield.



MET'MAP, your aeronautical weather chart ! - Copyright ORBIFLY December 2007 - Disclaimer

ORBIFLY MET'MAP TEAM :

Programming & Development : Alexandra Zaïnal
Concept & Development : Baudouin d'Aumeries
Co-Development & Prog : Marc-Olivier Méhu
Technical & hardware support : Manuel Goepfert

Contact : metmap@orbifly.com




SOURCES & CREDITS :

   NOAA